Location: Newark
(39.6172°N, 96.8533°W)
Time: 20:49:50
(UTC+00:00)

Envisat - Pass Details

Date: 28 January 2020
Orbit: 764 x 766 km, 98.1° (Epoch: 25 February)

Event Time Altitude Azimuth Distance (km) Brightness Sun altitude
Rises 12:42:03 0° 18° (NNE) 3,239 6.3 -11.2°
Reaches altitude 10° 12:44:26 10° 25° (NNE) 2,308 5.6 -10.7°
Maximum altitude 12:49:21 48° 99° (E) 994 4.2 -9.8°
Drops below altitude 10° 12:54:14 10° 174° (S) 2,292 5.8 -8.9°
Sets 12:56:36 0° 179° (S) 3,213 6.5 -8.5°
